www.pogodaiklimat.ru

ПОГОДА в Lop Buri

  • Прогноз погоды в Lop Buri
  • Монитор погоды в Lop Buri
  • Климат города

АРХИВ ПОГОДЫ в Lop Buri

Время (UTC), дата Ветер
(напр.,м/с)
 
Видим.   Явления Облачность Т
(С)
Тd
(С)
f
(%)
Тe
(С)
Тes
(С)
Комфортность P
(гПа)
Po
(гПа)
Тmin
(С)
Tmax
(С)
R
(мм)
S
(см)
12 9.01 штиль 0 6000 м слабый дождь 10/6 600 м
[Sc Ac As]
+25.0 +23.5 91 +34 +34 очень
душно
1010.7 1009.3 +26.7 0.3
15 9.01 штиль 0 6000 м слабый дождь 10/6 600 м
[Sc Ac As]
+25.0 +23.5 91 +34 +34 очень
душно
1010.7 1009.3 +26.7 0.3
18 9.01 штиль 0 3000 м слабый дождь 10/6 600 м
[Sc Ac As]
+25.0 +24.4 96 +35 +35 очень
душно
1009.4 1008.1 1
21 9.01 штиль 0 3000 м слабый дождь 10/6 600 м
[Sc Ac As]
+24.9 +24.3 96 +34 +34 очень
душно
1008.5 1007.2 2
00 10.01 штиль 0 5000 м в посл. час дождь 10/4 600 м
[Sc Ac As Cs]
+24.5 +23.8 96 +33 +33 очень
душно
1009.7 1008.4 +24.4 2
03 10.01 штиль 0 7000 м дымка {дождь} 10/5 600 м
[Sc Ac As Cs]
+26.1 +24.2 89 +36 +39 очень
душно
1011.5 1010.2 0.1
06 10.01 штиль 0 8000 м дымка {дождь} 10/6 600 м
[Cu Sc Ac As Cs]
+28.2 +24.0 78 +39 +43 очень
душно
1009.6 1008.3 0.1
09 10.01 штиль 0 8000 м дымка 10/4 600 м
[Sc Ac As Cs]
+27.8 +24.2 81 +39 +40 очень
душно
1007.7 1006.4
12 10.01 штиль 0 7000 м дымка 10/4 600 м
[Sc Ac As Cs]
+26.4 +24.5 89 +37 +37 очень
душно
1009.0 1007.6 +28.5
15 10.01 штиль 0 6000 м дымка 10/5 600 м
[Sc Ac As Cs]
+25.8 +24.5 93 +36 +36 очень
душно
1010.9 1009.6
18 10.01 штиль 0 6000 м в посл. час дождь 10/5 600 м
[Sc Ac As Cs]
+25.6 +24.6 94 +36 +36 очень
душно
1010.4 1009.1 0.0
21 10.01 Ю 2 6000 м дымка 10/4 600 м
[Sc Ac As Cs]
+24.8 +23.6 93 +34 +34 очень
душно
1008.6 1007.2
00 11.01 штиль 0 5000 м дымка {дождь} 10/5 600 м
[Sc Ac As Cs]
+24.5 +23.8 96 +33 +33 очень
душно
1009.6 1008.3 +24.3 0.1
03 11.01 В 2 7000 м дымка 10/5 600 м
[Cu Sc Ac As Cs]
+27.0 +23.3 80 +36 +39 очень
душно
1012.0 1010.7
06 11.01 Ю 6 8000 м в посл. час дождь 10/5 600 м
[Cb cap Ac As Cs]
+30.0 +23.5 68 +41 +42 опасность
перегрева
1009.4 1008.1 0.1
09 11.01 Ю 3 7000 м дымка {дождь} 10/5 600 м
[Sc Ac As Cs]
+29.0 +23.2 71 +39 +40 очень
душно
1007.8 1006.5 0.0
12 11.01 штиль 0 7000 м дымка {дождь} 8/4 600 м
[Sc Ac und Cs]
+27.5 +24.0 81 +38 +38 очень
душно
1008.2 1006.9 +30.4 0.1
15 11.01 штиль 0 7000 м дымка 8/4 600 м
[Sc Ac und Cs]
+25.5 +22.5 83 +33 +33 очень
душно
1010.3 1009.0
18 11.01 штиль 0 7000 м дымка 8/4 600 м
[Sc Ac und Cs]
+24.9 +22.7 88 +33 +33 очень
душно
1010.1 1008.8
21 11.01 штиль 0 7000 м дымка 5/3 600 м
[Sc Ac lent Cs]
+24.1 +22.5 91 +32 +32 очень
душно
1007.8 1006.5
00 12.01 штиль 0 6000 м дымка 10/3 600 м
[Sc Ac und Cs]
+24.0 +22.5 91 +31 +31 очень
душно
1008.1 1006.8 +24.0 0.1
03 12.01 ЮВ 6 8000 м дымка 9/3 600 м
[Sc As op Cs]
+28.5 +23.4 74 +39 +40 очень
душно
1010.0 1008.7
06 12.01 Ю 5 10 км 8/5 600 м
[Cu Sc As op Cs]
+32.0 +23.2 60 +43 +45 опасность
перегрева
1007.6 1006.3
09 12.01 штиль 0 10 км в посл. час дождь 9/4 600 м
[Cu med, cong As op Cs]
+30.0 +26.4 81 +46 +48 опасность
перегрева
1005.9 1004.6 2
12 12.01 штиль 0 8000 м дымка {дождь} 8/3 600 м
[Cu med, cong As op Cs]
+27.2 +24.0 83 +38 +38 очень
душно
1006.7 1005.3 +32.6 2
15 12.01 штиль 0 7000 м дымка 5/0
[Ac lent Cs]
+24.9 +22.2 85 +32 +32 очень
душно
1009.2 1007.9
18 12.01 штиль 0 7000 м дымка 8/3 600 м
[Cu med, cong Ac lent Cs]
+24.6 +23.0 91 +33 +33 очень
душно
1009.4 1008.1
21 12.01 штиль 0 7000 м дымка 8/0
[Ac lent Cs]
+24.1 +23.1 94 +32 +32 очень
душно
1008.3 1007.0
00 13.01 штиль 0 6000 м дымка 9/5 600 м
[Cu Sc As op Cs]
+23.7 +22.8 95 +31 +31 очень
душно
1009.3 1008.0 +23.5 2
03 13.01 Ю 2 7000 м дымка 8/4 600 м
[Cu med, cong Ac lent Cs]
+28.5 +24.5 79 +40 +44 очень
душно
1010.6 1009.3
06 13.01 ЮЗ 2 8000 м мгла 6/5 600 м
[Cu med, cong Ac lent Cs]
+32.3 +22.4 56 +42 +48 опасность
перегрева
1008.2 1006.9
09 13.01 С 5 9000 м мгла 4/3 600 м
[Cu med, cong Ac lent Ci]
+33.1 +22.5 54 +43 +44 опасность
перегрева
1006.3 1005.0
12 13.01 штиль 0 8000 м дымка 3/1 600 м
[Cu med, cong Ac lent Cs]
+29.0 +23.8 74 +40 +40 очень
душно
1007.4 1006.1 +33.8
15 13.01 штиль 0 7000 м дымка 3/0
[Cs]
+26.0 +23.2 85 +35 +35 очень
душно
1009.4 1008.1
18 13.01 штиль 0 7000 м дымка 3/0
[Cs]
+24.5 +22.9 91 +32 +32 очень
душно
1009.1 1007.8
21 13.01 штиль 0 6000 м дымка 3/0
[Cs]
+23.6 +22.7 95 +31 +31 очень
душно
1008.6 1007.3
00 14.01 штиль 0 6000 м дымка 5/1 600 м
[Sc Ac lent Cs]
+22.5 +21.6 95 +30 +30 очень
душно
1009.3 1008.0 +22.3
03 14.01 штиль 0 9000 м дымка 5/1 600 м
[Cu hum As trans Cs]
+28.5 +22.8 71 +38 +47 очень
душно
1011.1 1009.8
06 14.01 штиль 0 10 км 8/3 600 м
[Cu med, cong As trans Cs]
+32.5 +22.1 54 +41 +50 опасность
перегрева
1009.1 1007.8
09 14.01 штиль 0 10 км 5/3 600 м
[Cu med, cong Cs]
+33.6 +22.6 53 +43 +47 опасность
перегрева
1007.6 1006.3
12 14.01 штиль 0 8000 м дымка 5/1 600 м
[Cu hum As trans Cs]
+30.0 +24.3 72 +42 +42 опасность
перегрева
1008.8 1007.5 +34.0
15 14.01 штиль 0 7000 м дымка 5/0
[As trans Cs]
+27.6 +24.6 84 +39 +39 очень
душно
1011.4 1010.1
18 14.01 штиль 0 7000 м дымка 3/0
[Ci fib]
+26.0 +22.9 83 +35 +35 очень
душно
1011.5 1010.2
21 14.01 штиль 0 7000 м дымка 3/0
[Ci fib]
+24.5 +21.9 85 +31 +31 очень
душно
1010.7 1009.3
00 15.01 штиль 0 7000 м дымка 4/0
[Ac lent Cs]
+23.0 +20.7 87 +30 +30 очень
душно
1011.9 1010.6 +22.8
03 15.01 СВ 3 8000 м мгла 4/0
[Ac lent Cs]
+31.0 +21.3 56 +39 +46 очень
душно
1013.1 1011.8
06 15.01 В 2 10 км 4/3 600 м
[Cu hum Ac lent Cs]
+34.0 +18.9 41 +39 +48 очень
душно
1010.9 1009.6
09 15.01 З 2 10 км 4/3 600 м
[Cu hum Ac lent Cs]
+34.6 +18.6 39 +39 +42 очень
душно
1008.9 1007.6
12 15.01 штиль 0 8000 м мгла 3/0
[Ci fib]
+29.4 +21.8 64 +38 +38 очень
душно
1010.3 1009.0 +35.0
15 15.01 штиль 0 8000 м дымка 3/0
[Ci fib]
+27.0 +22.4 76 +35 +35 очень
душно
1011.9 1010.6
18 15.01 штиль 0 7000 м дымка 3/0
[Ci fib]
+25.5 +21.7 80 +33 +33 очень
душно
1011.5 1010.1
21 15.01 СВ 5 7000 м дымка 3/0
[Ci fib]
+24.1 +19.3 75 +29 +29 душно 1010.7 1009.4
00 16.01 СВ 6 7000 м дымка 8/0
[Ac lent Cs]
+25.1 +19.3 70 +30 +30 душно 1011.5 1010.2 +23.6
03 16.01 СВ 3 8000 м мгла 3/1 600 м
[Cu hum Ac lent Cs]
+29.1 +20.1 58 +35 +42 очень
душно
1013.1 1011.8
06 16.01 ЮВ 3 9000 м мгла 3/3 600 м
[Cu med, cong Ac lent Ci fib]
+32.8 +19.1 44 +38 +46 очень
душно
1011.0 1009.7
09 16.01 С 1 9000 м мгла 4/3 600 м
[Cu med, cong Ac lent Ci fib]
+33.5 +19.2 43 +39 +42 очень
душно
1008.6 1007.3

 

Местоположение метеостанции Lop Buri (Таиланд): широта 14.80 долгота 100.61 высота над уровнем моря 11 м.

В архиве по умолчанию представлена погода в Lop Buri за последнюю неделю. Архивные данные за месяц целиком и за предыдущие месяцы, начиная с января 2011 года, Вы можете получить, выбрав интересующий диапазон дат из раскрывающегося списка и нажав кнопку "Ввод!".

Внимание! Время в таблицах - всемирное. Для получения местного времени необходимо прибавить поправку, которая в Lop Buri равна 7 ч.

Ветер - указаны скорость ветра в м/с - средняя за 10 мин, порывы в срок и между сроками (в фигурных скобках) и направление, откуда дует ветер: С - северный, СВ - северо-восточный, В - восточный, ЮВ - юго-восточный, Ю - южный, ЮЗ - юго-западный, З - западный, СЗ - северо-западный.
Видимость - горизонтальная дальность видимости в метрах или километрах. При видимости от 1 до 10 км при отсутствии осадков обычно наблюдается дымка, при ухудшении видимости до 1 км и менее - туман. В сухую погоду видимость может ухудшаться дымом, пылью или мглою.
Явления - указаны атмосферные явления, наблюдавшиеся в срок или в последний час перед сроком; фигурными скобками обозначены явления, наблюдавшиеся между сроками (за 1-3 часа до срока); квадратными скобками обозначены град или гололедные отложения с указанием их диаметра в мм.
Облачность - указаны через наклонную черту общая и нижняя облачность в баллах и высота нижней границы облаков в метрах; квадратными скобками обозначены формы облаков: Ci - перистые, Cs - перисто-слоистые, Cc - перисто-кучевые, Ac - высококучевые, As - высокослоистые, Sc - слоисто-кучевые, Ns - слоисто-дождевые, Cu - кучевые, Cb - кучево-дождевые. Подробнее классификацию облаков см. в Атласе облаков (PDF).
T - Температура воздуха - температура, измеренная на высоте 2 м над землей.
Td - Температура точки росы - температура, при понижении до которой содержащийся в воздухе водяной пар достигнет насыщения.
f - Относительная влажность воздуха - влажноcть воздуха, измеренная на высоте 2 м над землей.
Te - Эффективная температура - температура, которую ощущает одетый по сезону человек в тени. Характеристика душности погоды. При расчете учитывается влияние влажности воздуха и скорости ветра на теплоощущения человека.
Tes - Эффективная температура на солнце - температура, которую ощущает человек, с поправкой на солнечный нагрев. Характеристика знойности погоды. Зависит от высоты солнца над горизонтом, облачности и скорости ветра. Ночью, в пасмурную погоду, а также при ветре 12 м/с и более поправка равна нулю.
P - Атмосферное давление - приведенное к уровню моря атмосферное давление.
Po - Атмосферное давление - измеренное на уровне метеостанции атмосферное давление.
Tmin - Минимальная температура - минимум температуры воздуха на высоте 2 м над землей.
Tmax - Максимальная температура - максимум температуры воздуха на высоте 2 м над землей.
R - Количество осадков - Количество выпавших осадков, мм. При наведении курсора мыши на число - период времени, за который выпало указанное количество осадков.
S - Снежный покров - Высота снежного покрова, см. При наведении курсора мыши на число - состояние снежного покрова и степень покрытия местности в баллах.